Time,TemperatureF,DewpointF,PressureIn,WindDirection,WindDirectionDegrees,WindSpeedMPH,WindSpeedGustMPH,Humidity,HourlyPrecipIn,Conditions,Clouds,dailyrainin,SoftwareType,DateUTC
2013-06-11 00:03:00,71.6,69.2,28.82,NW,315,0.0,0.0,92,0.00,,---,0.00,VWS V14.00,2013-06-11 04:03:00,
2013-06-11 00:06:00,71.6,69.2,28.82,NW,315,0.0,0.0,92,0.00,,---,0.00,VWS V14.00,2013-06-11 04:06:00,
2013-06-11 00:15:00,71.6,69.5,28.85,West,270,1.6,2.0,93,0.21,,---,0.21,VWS V14.00,2013-06-11 04:15:00,
2013-06-11 00:19:00,71.6,69.8,28.85,West,270,0.0,2.2,94,0.30,,---,0.30,VWS V14.00,2013-06-11 04:19:00,
2013-06-11 00:25:00,71.6,69.8,28.85,ENE,68,2.0,2.2,94,0.30,,---,0.30,VWS V14.00,2013-06-11 04:25:00,
2013-06-11 00:31:00,71.6,69.8,28.85,East,90,0.0,2.2,94,0.30,,---,0.30,VWS V14.00,2013-06-11 04:31:00,
2013-06-11 00:37:00,71.6,69.8,28.85,NW,315,0.0,2.2,94,0.30,,---,0.30,VWS V14.00,2013-06-11 04:37:00,
2013-06-11 00:43:00,71.6,70.1,28.85,ENE,68,0.0,2.2,95,0.33,,---,0.33,VWS V14.00,2013-06-11 04:43:00,
2013-06-11 00:49:00,71.6,70.1,28.85,WNW,292,0.0,2.7,95,0.33,,---,0.33,VWS V14.00,2013-06-11 04:49:00,
2013-06-11 00:55:00,71.6,70.1,28.85,NW,315,3.4,3.4,95,0.33,,---,0.33,VWS V14.00,2013-06-11 04:55:00,
2013-06-11 00:58:00,71.6,70.1,28.85,WNW,292,0.0,3.4,95,0.33,,---,0.33,VWS V14.00,2013-06-11 04:58:00,
2013-06-11 01:04:00,71.6,70.1,28.85,SSE,158,0.0,2.5,95,0.00,,---,0.33,VWS V14.00,2013-06-11 05:04:00,
2013-06-11 01:10:00,71.6,70.1,28.85,West,270,0.0,2.5,95,0.00,,---,0.33,VWS V14.00,2013-06-11 05:10:00,
2013-06-11 01:16:00,71.6,70.4,28.82,ENE,68,0.0,2.5,96,0.00,,---,0.33,VWS V14.00,2013-06-11 05:16:00,
2013-06-11 01:22:00,71.6,70.4,28.82,SE,135,0.9,2.5,96,0.00,,---,0.33,VWS V14.00,2013-06-11 05:22:00,
2013-06-11 01:28:00,71.6,70.4,28.82,WNW,292,0.0,2.5,96,0.00,,---,0.33,VWS V14.00,2013-06-11 05:28:00,
2013-06-11 01:34:00,71.6,70.4,28.82,WNW,292,0.0,2.5,96,0.00,,---,0.33,VWS V14.00,2013-06-11 05:34:00,
2013-06-11 01:40:00,71.6,70.4,28.82,West,270,0.0,2.5,96,0.00,,---,0.33,VWS V14.00,2013-06-11 05:40:00,
2013-06-11 01:46:00,71.6,70.4,28.82,East,90,0.0,3.1,96,0.00,,---,0.33,VWS V14.00,2013-06-11 05:46:00,
2013-06-11 01:52:00,71.6,70.7,28.82,WNW,292,0.0,4.3,97,0.00,,---,0.33,VWS V14.00,2013-06-11 05:52:00,
2013-06-11 01:58:00,71.6,70.7,28.82,West,270,0.0,4.3,97,0.00,,---,0.33,VWS V14.00,2013-06-11 05:58:00,
2013-06-11 02:04:00,71.6,70.7,28.82,SW,225,0.0,1.6,97,0.00,,---,0.33,VWS V14.00,2013-06-11 06:04:00,
2013-06-11 02:10:00,71.6,70.7,28.82,NW,315,0.0,1.6,97,0.00,,---,0.33,VWS V14.00,2013-06-11 06:10:00,
2013-06-11 02:16:00,71.6,70.7,28.82,ESE,112,0.0,1.6,97,0.00,,---,0.33,VWS V14.00,2013-06-11 06:16:00,
2013-06-11 02:22:00,71.6,70.7,28.82,ESE,112,0.0,1.6,97,0.00,,---,0.33,VWS V14.00,2013-06-11 06:22:00,
2013-06-11 02:28:00,71.6,70.7,28.82,NE,45,0.0,1.6,97,0.00,,---,0.33,VWS V14.00,2013-06-11 06:28:00,
2013-06-11 02:34:00,71.8,71.2,28.82,East,90,0.0,1.6,98,0.00,,---,0.33,VWS V14.00,2013-06-11 06:34:00,
2013-06-11 02:40:00,71.8,71.2,28.82,West,270,0.0,1.6,98,0.00,,---,0.33,VWS V14.00,2013-06-11 06:40:00,
2013-06-11 02:46:00,71.8,71.2,28.82,ESE,112,0.0,1.6,98,0.00,,---,0.33,VWS V14.00,2013-06-11 06:46:00,
2013-06-11 02:52:00,71.8,71.2,28.82,SSW,202,0.0,1.6,98,0.00,,---,0.33,VWS V14.00,2013-06-11 06:52:00,
2013-06-11 02:58:00,71.8,71.2,28.82,NW,315,0.0,1.6,98,0.00,,---,0.33,VWS V14.00,2013-06-11 06:58:00,
2013-06-11 03:04:00,71.8,71.2,28.82,West,270,0.0,0.0,98,0.00,,---,0.33,VWS V14.00,2013-06-11 07:04:00,
2013-06-11 03:10:00,71.8,71.2,28.82,SE,135,0.0,0.0,98,0.00,,---,0.33,VWS V14.00,2013-06-11 07:10:00,
2013-06-11 03:16:00,71.8,71.2,28.82,SSW,202,0.0,0.0,98,0.00,,---,0.33,VWS V14.00,2013-06-11 07:16:00,
2013-06-11 03:22:00,71.8,71.2,28.82,West,270,0.0,0.0,98,0.00,,---,0.33,VWS V14.00,2013-06-11 07:22:00,
2013-06-11 03:28:00,71.8,71.5,28.79,West,270,0.0,0.0,99,0.00,,---,0.33,VWS V14.00,2013-06-11 07:28:00,
2013-06-11 03:34:00,71.8,71.5,28.79,West,270,0.0,0.0,99,0.00,,---,0.33,VWS V14.00,2013-06-11 07:34:00,
2013-06-11 03:40:00,71.8,71.5,28.82,WNW,292,0.0,0.0,99,0.00,,---,0.33,VWS V14.00,2013-06-11 07:40:00,
2013-06-11 03:46:00,71.8,71.5,28.82,WNW,292,0.0,0.0,99,0.00,,---,0.33,VWS V14.00,2013-06-11 07:46:00,
2013-06-11 03:52:00,71.8,71.5,28.82,WNW,292,0.0,0.0,99,0.00,,---,0.33,VWS V14.00,2013-06-11 07:52:00,
2013-06-11 03:58:00,71.8,71.5,28.82,WNW,292,0.0,0.0,99,0.00,,---,0.33,VWS V14.00,2013-06-11 07:58:00,
2013-06-11 04:04:00,71.8,71.5,28.82,NW,315,0.0,0.0,99,0.05,,---,0.38,VWS V14.00,2013-06-11 08:04:00,
2013-06-11 04:10:00,71.8,71.5,28.82,NW,315,0.0,0.0,99,0.05,,---,0.38,VWS V14.00,2013-06-11 08:10:00,
2013-06-11 04:16:00,71.8,71.5,28.82,NW,315,0.0,0.0,99,0.05,,---,0.38,VWS V14.00,2013-06-11 08:16:00,
2013-06-11 04:22:00,71.6,71.3,28.82,NW,315,0.0,0.0,99,0.05,,---,0.38,VWS V14.00,2013-06-11 08:22:00,
2013-06-11 04:28:00,71.6,71.3,28.82,NE,45,0.0,0.0,99,0.05,,---,0.38,VWS V14.00,2013-06-11 08:28:00,
2013-06-11 04:34:00,71.6,71.3,28.82,NE,45,0.0,0.0,99,0.05,,---,0.38,VWS V14.00,2013-06-11 08:34:00,
2013-06-11 04:40:00,71.6,71.3,28.79,NE,45,0.0,0.0,99,0.05,,---,0.38,VWS V14.00,2013-06-11 08:40:00,
2013-06-11 04:46:00,71.6,71.3,28.79,NNW,338,0.0,0.0,99,0.05,,---,0.38,VWS V14.00,2013-06-11 08:46:00,
2013-06-11 04:52:00,71.6,71.6,28.79,NW,315,0.0,0.0,100,0.05,,---,0.38,VWS V14.00,2013-06-11 08:52:00,
2013-06-11 04:58:00,71.6,71.6,28.79,SE,135,0.0,0.0,100,0.05,,---,0.38,VWS V14.00,2013-06-11 08:58:00,
2013-06-11 05:05:00,71.6,71.6,28.79,SW,225,0.0,0.0,100,0.05,,---,0.38,VWS V14.00,2013-06-11 09:05:00,
2013-06-11 05:11:00,71.6,71.6,28.79,SW,225,0.0,0.0,100,0.05,,---,0.38,VWS V14.00,2013-06-11 09:11:00,
2013-06-11 05:17:00,71.6,71.6,28.79,SW,225,0.0,0.0,100,0.05,,---,0.38,VWS V14.00,2013-06-11 09:17:00,
2013-06-11 05:23:00,71.6,71.6,28.79,SW,225,0.0,0.0,100,0.05,,---,0.38,VWS V14.00,2013-06-11 09:23:00,
2013-06-11 05:29:00,71.6,71.6,28.79,SW,225,0.0,0.0,100,0.05,,---,0.38,VWS V14.00,2013-06-11 09:29:00,
2013-06-11 05:35:00,71.6,71.6,28.79,West,270,0.0,0.0,100,0.05,,---,0.38,VWS V14.00,2013-06-11 09:35:00,
2013-06-11 05:41:00,71.6,71.6,28.82,West,270,0.0,0.0,100,0.05,,---,0.38,VWS V14.00,2013-06-11 09:41:00,
2013-06-11 05:47:00,71.6,71.6,28.82,NW,315,0.0,0.0,100,0.05,,---,0.38,VWS V14.00,2013-06-11 09:47:00,
2013-06-11 05:53:00,71.6,71.6,28.82,NW,315,0.0,0.0,100,0.05,,---,0.38,VWS V14.00,2013-06-11 09:53:00,
2013-06-11 05:59:00,71.6,71.6,28.82,NW,315,0.0,0.0,100,0.05,,---,0.38,VWS V14.00,2013-06-11 09:59:00,
2013-06-11 06:05:00,71.4,71.4,28.82,NW,315,0.0,0.0,100,0.00,,---,0.38,VWS V14.00,2013-06-11 10:05:00,
2013-06-11 06:11:00,71.4,71.4,28.82,NW,315,0.0,0.0,100,0.00,,---,0.38,VWS V14.00,2013-06-11 10:11:00,
2013-06-11 06:17:00,71.4,71.4,28.82,NW,315,0.0,0.0,100,0.00,,---,0.38,VWS V14.00,2013-06-11 10:17:00,
2013-06-11 06:23:00,71.4,71.4,28.82,NW,315,0.0,0.0,100,0.00,,---,0.38,VWS V14.00,2013-06-11 10:23:00,
2013-06-11 06:29:00,71.2,71.2,28.82,NW,315,0.0,0.0,100,0.00,,---,0.38,VWS V14.00,2013-06-11 10:29:00,
2013-06-11 06:35:00,71.2,71.2,28.82,NW,315,0.0,0.0,100,0.00,,---,0.38,VWS V14.00,2013-06-11 10:35:00,
2013-06-11 06:41:00,71.1,71.1,28.82,NW,315,0.0,0.0,100,0.00,,---,0.38,VWS V14.00,2013-06-11 10:41:00,
2013-06-11 06:47:00,71.1,71.1,28.82,NW,315,0.0,0.0,100,0.00,,---,0.38,VWS V14.00,2013-06-11 10:47:00,
2013-06-11 06:53:00,71.1,71.1,28.82,NW,315,0.0,0.0,100,0.00,,---,0.38,VWS V14.00,2013-06-11 10:53:00,
2013-06-11 06:59:00,71.1,71.1,28.82,NW,315,0.0,0.0,100,0.00,,---,0.38,VWS V14.00,2013-06-11 10:59:00,
2013-06-11 07:05:00,71.2,71.2,28.82,NW,315,0.0,0.0,100,0.00,,---,0.38,VWS V14.00,2013-06-11 11:05:00,
2013-06-11 07:14:00,71.2,71.2,28.85,NW,315,0.0,0.0,100,0.00,,---,0.38,VWS V14.00,2013-06-11 11:14:00,
2013-06-11 07:20:00,71.6,71.6,28.85,NW,315,0.0,0.0,100,0.00,,---,0.38,VWS V14.00,2013-06-11 11:20:00,
2013-06-11 07:26:00,71.6,71.6,28.85,NW,315,0.0,0.0,100,0.00,,---,0.38,VWS V14.00,2013-06-11 11:26:00,
2013-06-11 07:32:00,71.8,71.5,28.85,NW,315,0.0,0.0,99,0.00,,---,0.38,VWS V14.00,2013-06-11 11:32:00,
2013-06-11 07:38:00,72.0,71.7,28.85,East,90,0.0,0.0,99,0.00,,---,0.38,VWS V14.00,2013-06-11 11:38:00,
2013-06-11 07:44:00,72.1,72.2,28.85,West,270,0.0,0.0,100,0.00,,---,0.38,VWS V14.00,2013-06-11 11:44:00,
2013-06-11 07:50:00,72.3,72.0,28.85,West,270,0.0,0.0,99,0.00,,---,0.38,VWS V14.00,2013-06-11 11:50:00,
2013-06-11 07:56:00,72.5,72.2,28.85,South,180,0.0,0.0,99,0.00,,---,0.38,VWS V14.00,2013-06-11 11:56:00,
2013-06-11 08:02:00,72.9,72.6,28.85,North,0,0.0,0.0,99,0.00,,---,0.38,VWS V14.00,2013-06-11 12:02:00,
2013-06-11 08:08:00,73.0,72.8,28.85,East,90,0.0,0.0,99,0.00,,---,0.38,VWS V14.00,2013-06-11 12:08:00,
2013-06-11 08:14:00,73.6,73.0,28.85,WSW,248,0.0,0.0,98,0.00,,---,0.38,VWS V14.00,2013-06-11 12:14:00,
2013-06-11 08:20:00,73.9,73.3,28.85,West,270,0.0,0.0,98,0.00,,---,0.38,VWS V14.00,2013-06-11 12:20:00,
2013-06-11 08:27:00,74.5,73.9,28.85,WNW,292,0.0,0.0,98,0.00,,---,0.38,VWS V14.00,2013-06-11 12:27:00,
2013-06-11 08:33:00,75.0,73.8,28.85,ENE,68,1.6,1.6,96,0.00,,---,0.38,VWS V14.00,2013-06-11 12:33:00,
2013-06-11 08:39:00,75.6,74.0,28.85,ENE,68,0.0,1.6,95,0.00,,---,0.38,VWS V14.00,2013-06-11 12:39:00,
2013-06-11 08:45:00,76.3,74.1,28.85,NE,45,1.6,1.6,93,0.00,,---,0.38,VWS V14.00,2013-06-11 12:45:00,
2013-06-11 08:51:00,76.8,74.3,28.85,ENE,68,0.0,1.6,92,0.00,,---,0.38,VWS V14.00,2013-06-11 12:51:00,
2013-06-11 08:57:00,77.2,74.3,28.85,East,90,0.0,1.6,91,0.00,,---,0.38,VWS V14.00,2013-06-11 12:57:00,
2013-06-11 09:03:00,77.5,74.4,28.85,NNW,338,0.0,0.0,90,0.00,,---,0.38,VWS V14.00,2013-06-11 13:03:00,
2013-06-11 09:09:00,77.9,74.4,28.85,East,90,0.0,1.3,89,0.00,,---,0.38,VWS V14.00,2013-06-11 13:09:00,
2013-06-11 09:15:00,78.4,74.9,28.85,WNW,292,0.9,1.3,89,0.00,,---,0.38,VWS V14.00,2013-06-11 13:15:00,
2013-06-11 09:21:00,78.8,74.3,28.85,NNE,22,0.0,1.3,86,0.00,,---,0.38,VWS V14.00,2013-06-11 13:21:00,
2013-06-11 09:27:00,79.0,74.4,28.85,WNW,292,0.0,3.1,86,0.00,,---,0.38,VWS V14.00,2013-06-11 13:27:00,
2013-06-11 09:33:00,79.3,74.1,28.85,West,270,1.1,3.1,84,0.00,,---,0.38,VWS V14.00,2013-06-11 13:33:00,
2013-06-11 09:39:00,79.5,74.3,28.85,SE,135,0.0,3.1,84,0.00,,---,0.38,VWS V14.00,2013-06-11 13:39:00,
2013-06-11 09:45:00,79.9,73.5,28.85,ESE,112,0.0,3.1,81,0.00,,---,0.38,VWS V14.00,2013-06-11 13:45:00,
2013-06-11 09:51:00,80.1,74.1,28.85,East,90,0.0,3.1,82,0.00,,---,0.38,VWS V14.00,2013-06-11 13:51:00,
2013-06-11 09:57:00,80.6,73.9,28.85,East,90,0.0,3.1,80,0.00,,---,0.38,VWS V14.00,2013-06-11 13:57:00,
2013-06-11 10:03:00,80.4,74.1,28.85,East,90,0.0,0.0,81,0.00,,---,0.38,VWS V14.00,2013-06-11 14:03:00,
2013-06-11 10:09:00,80.8,74.4,28.85,West,270,1.3,1.3,81,0.00,,---,0.38,VWS V14.00,2013-06-11 14:09:00,
2013-06-11 10:15:00,81.3,74.6,28.85,ESE,112,0.0,1.3,80,0.00,,---,0.38,VWS V14.00,2013-06-11 14:15:00,
2013-06-11 10:21:00,81.7,75.3,28.85,NE,45,1.6,1.6,81,0.00,,---,0.38,VWS V14.00,2013-06-11 14:21:00,
2013-06-11 10:27:00,82.0,75.3,28.85,East,90,0.0,1.6,80,0.00,,---,0.38,VWS V14.00,2013-06-11 14:27:00,
2013-06-11 10:33:00,82.4,74.9,28.85,ESE,112,0.0,1.6,78,0.00,,---,0.38,VWS V14.00,2013-06-11 14:33:00,
2013-06-11 10:39:00,82.8,74.8,28.85,ESE,112,0.0,1.6,77,0.00,,---,0.38,VWS V14.00,2013-06-11 14:39:00,
2013-06-11 10:45:00,83.1,75.6,28.85,WNW,292,2.2,2.7,78,0.00,,---,0.38,VWS V14.00,2013-06-11 14:45:00,
2013-06-11 10:51:00,83.7,75.7,28.85,NW,315,5.6,5.6,77,0.00,,---,0.38,VWS V14.00,2013-06-11 14:51:00,
2013-06-11 10:57:00,83.7,74.9,28.85,ENE,68,0.9,5.6,75,0.00,,---,0.38,VWS V14.00,2013-06-11 14:57:00,
2013-06-11 11:03:00,83.8,75.1,28.85,ESE,112,0.0,0.0,75,0.00,,---,0.38,VWS V14.00,2013-06-11 15:03:00,
2013-06-11 11:09:00,84.0,75.2,28.85,West,270,0.0,1.3,75,0.00,,---,0.38,VWS V14.00,2013-06-11 15:09:00,
2013-06-11 11:15:00,84.4,75.2,28.85,WNW,292,5.6,5.6,74,0.00,,---,0.38,VWS V14.00,2013-06-11 15:15:00,
2013-06-11 11:22:00,84.7,75.5,28.85,WNW,292,0.0,5.6,74,0.00,,---,0.38,VWS V14.00,2013-06-11 15:22:00,
2013-06-11 11:28:00,84.9,75.3,28.85,WNW,292,2.0,5.6,73,0.00,,---,0.38,VWS V14.00,2013-06-11 15:28:00,
2013-06-11 11:34:00,85.5,75.4,28.85,NW,315,0.0,5.6,72,0.00,,---,0.38,VWS V14.00,2013-06-11 15:34:00,
2013-06-11 11:40:00,86.0,75.5,28.85,West,270,0.0,5.6,71,0.00,,---,0.38,VWS V14.00,2013-06-11 15:40:00,
2013-06-11 11:46:00,86.4,75.4,28.85,WNW,292,2.7,5.6,70,0.00,,---,0.38,VWS V14.00,2013-06-11 15:46:00,
2013-06-11 11:52:00,86.5,75.2,28.85,SSE,158,2.2,5.6,69,0.00,,---,0.38,VWS V14.00,2013-06-11 15:52:00,
2013-06-11 11:58:00,86.7,75.3,28.85,WNW,292,1.3,5.8,69,0.00,,---,0.38,VWS V14.00,2013-06-11 15:58:00,
2013-06-11 12:04:00,87.1,75.2,28.85,West,270,1.1,5.8,68,0.00,,---,0.38,VWS V14.00,2013-06-11 16:04:00,
2013-06-11 12:10:00,87.3,75.8,28.82,SSW,202,4.3,5.8,69,0.00,,---,0.38,VWS V14.00,2013-06-11 16:10:00,
2013-06-11 12:16:00,87.4,75.1,28.82,SW,225,1.6,5.8,67,0.00,,---,0.38,VWS V14.00,2013-06-11 16:16:00,
2013-06-11 12:22:00,87.6,75.3,28.82,West,270,2.5,5.8,67,0.00,,---,0.38,VWS V14.00,2013-06-11 16:22:00,
2013-06-11 12:28:00,88.0,75.7,28.82,SW,225,1.3,5.8,67,0.00,,---,0.38,VWS V14.00,2013-06-11 16:28:00,
2013-06-11 12:34:00,88.2,75.4,28.82,East,90,1.6,5.8,66,0.00,,---,0.38,VWS V14.00,2013-06-11 16:34:00,
2013-06-11 12:40:00,88.5,75.7,28.82,NW,315,5.4,5.8,66,0.00,,---,0.38,VWS V14.00,2013-06-11 16:40:00,
2013-06-11 12:46:00,88.5,75.3,28.82,East,90,0.0,5.8,65,0.00,,---,0.38,VWS V14.00,2013-06-11 16:46:00,
2013-06-11 12:52:00,88.7,75.4,28.82,WNW,292,1.3,5.8,65,0.00,,---,0.38,VWS V14.00,2013-06-11 16:52:00,
2013-06-11 12:58:00,89.1,76.2,28.82,West,270,4.7,5.8,66,0.00,,---,0.38,VWS V14.00,2013-06-11 16:58:00,
2013-06-11 13:04:00,89.2,75.9,28.82,East,90,0.0,1.1,65,0.00,,---,0.38,VWS V14.00,2013-06-11 17:04:00,
2013-06-11 13:10:00,89.4,76.1,28.82,NW,315,0.0,1.1,65,0.00,,---,0.38,VWS V14.00,2013-06-11 17:10:00,
2013-06-11 13:16:00,89.4,75.6,28.82,NE,45,1.3,2.5,64,0.00,,---,0.38,VWS V14.00,2013-06-11 17:16:00,
2013-06-11 13:22:00,89.6,75.8,28.82,South,180,1.1,4.0,64,0.00,,---,0.38,VWS V14.00,2013-06-11 17:22:00,
2013-06-11 13:28:00,89.6,75.8,28.82,West,270,2.9,6.0,64,0.00,,---,0.38,VWS V14.00,2013-06-11 17:28:00,
2013-06-11 13:34:00,90.0,75.7,28.82,NE,45,2.7,6.0,63,0.00,,---,0.38,VWS V14.00,2013-06-11 17:34:00,
2013-06-11 13:40:00,90.0,75.7,28.82,WNW,292,6.0,6.0,63,0.00,,---,0.38,VWS V14.00,2013-06-11 17:40:00,
2013-06-11 13:46:00,90.1,75.8,28.82,West,270,1.3,6.0,63,0.00,,---,0.38,VWS V14.00,2013-06-11 17:46:00,
2013-06-11 13:52:00,90.1,75.8,28.82,West,270,0.0,6.0,63,0.00,,---,0.38,VWS V14.00,2013-06-11 17:52:00,
2013-06-11 13:58:00,90.3,76.0,28.82,West,270,2.7,6.0,63,0.00,,---,0.38,VWS V14.00,2013-06-11 17:58:00,
2013-06-11 14:04:00,90.3,76.0,28.82,WNW,292,0.0,5.6,63,0.00,,---,0.38,VWS V14.00,2013-06-11 18:04:00,
2013-06-11 14:10:00,90.5,76.2,28.82,East,90,3.4,5.6,63,0.00,,---,0.38,VWS V14.00,2013-06-11 18:10:00,
2013-06-11 14:16:00,90.7,76.4,28.82,West,270,2.0,5.6,63,0.00,,---,0.38,VWS V14.00,2013-06-11 18:16:00,
2013-06-11 14:22:00,90.1,75.8,28.82,South,180,0.0,5.6,63,0.00,,---,0.38,VWS V14.00,2013-06-11 18:22:00,
2013-06-11 14:28:00,90.1,75.8,28.82,West,270,2.9,5.6,63,0.00,,---,0.38,VWS V14.00,2013-06-11 18:28:00,
2013-06-11 14:34:00,89.4,75.2,28.82,East,90,0.0,5.6,63,0.00,,---,0.38,VWS V14.00,2013-06-11 18:34:00,
2013-06-11 14:40:00,90.0,75.7,28.79,WNW,292,2.5,5.6,63,0.00,,---,0.38,VWS V14.00,2013-06-11 18:40:00,
2013-06-11 14:47:00,90.5,76.2,28.79,SW,225,1.1,5.6,63,0.00,,---,0.38,VWS V14.00,2013-06-11 18:47:00,
2013-06-11 14:53:00,90.1,75.8,28.79,NW,315,0.0,6.0,63,0.00,,---,0.38,VWS V14.00,2013-06-11 18:53:00,
2013-06-11 14:59:00,89.8,75.5,28.79,West,270,0.0,6.0,63,0.00,,---,0.38,VWS V14.00,2013-06-11 18:59:00,
2013-06-11 15:05:00,90.1,75.8,28.79,WSW,248,0.0,2.7,63,0.00,,---,0.38,VWS V14.00,2013-06-11 19:05:00,
2013-06-11 15:11:00,90.1,75.8,28.82,NW,315,2.0,2.7,63,0.00,,---,0.38,VWS V14.00,2013-06-11 19:11:00,
2013-06-11 15:17:00,90.1,75.8,28.82,SW,225,1.1,6.0,63,0.00,,---,0.38,VWS V14.00,2013-06-11 19:17:00,
2013-06-11 15:23:00,90.1,75.4,28.82,SE,135,0.0,6.0,62,0.00,,---,0.38,VWS V14.00,2013-06-11 19:23:00,
2013-06-11 15:29:00,90.1,75.4,28.82,WSW,248,0.0,6.0,62,0.00,,---,0.38,VWS V14.00,2013-06-11 19:29:00,
2013-06-11 15:35:00,90.3,75.5,28.82,NW,315,0.9,6.0,62,0.00,,---,0.38,VWS V14.00,2013-06-11 19:35:00,
2013-06-11 15:41:00,90.0,75.2,28.82,SE,135,2.9,6.0,62,0.00,,---,0.38,VWS V14.00,2013-06-11 19:41:00,
2013-06-11 15:47:00,90.0,75.2,28.82,West,270,1.1,6.0,62,0.00,,---,0.38,VWS V14.00,2013-06-11 19:47:00,
2013-06-11 15:53:00,90.1,75.4,28.82,WNW,292,2.9,6.0,62,0.00,,---,0.38,VWS V14.00,2013-06-11 19:53:00,
2013-06-11 15:59:00,90.5,75.7,28.79,NW,315,2.7,6.0,62,0.00,,---,0.38,VWS V14.00,2013-06-11 19:59:00,
2013-06-11 16:05:00,90.5,75.7,28.79,NNE,22,2.0,2.0,62,0.00,,---,0.38,VWS V14.00,2013-06-11 20:05:00,
2013-06-11 16:11:00,90.0,75.7,28.79,NNW,338,0.0,2.7,63,0.00,,---,0.38,VWS V14.00,2013-06-11 20:11:00,
2013-06-11 16:17:00,90.1,75.4,28.79,ENE,68,0.0,4.0,62,0.00,,---,0.38,VWS V14.00,2013-06-11 20:17:00,
2013-06-11 16:23:00,90.3,75.5,28.79,SE,135,2.0,4.0,62,0.00,,---,0.38,VWS V14.00,2013-06-11 20:23:00,
2013-06-11 16:29:00,90.0,75.7,28.79,West,270,0.9,4.0,63,0.00,,---,0.38,VWS V14.00,2013-06-11 20:29:00,
2013-06-11 16:35:00,90.0,75.7,28.79,ESE,112,1.1,4.0,63,0.00,,---,0.38,VWS V14.00,2013-06-11 20:35:00,
2013-06-11 16:41:00,89.8,75.0,28.79,WNW,292,2.0,4.0,62,0.00,,---,0.38,VWS V14.00,2013-06-11 20:41:00,
2013-06-11 16:47:00,89.6,74.9,28.79,North,0,1.3,4.0,62,0.00,,---,0.38,VWS V14.00,2013-06-11 20:47:00,
2013-06-11 16:53:00,89.4,75.2,28.79,NNE,22,1.6,4.0,63,0.00,,---,0.38,VWS V14.00,2013-06-11 20:53:00,
2013-06-11 16:59:00,89.4,74.7,28.79,South,180,2.7,4.0,62,0.00,,---,0.38,VWS V14.00,2013-06-11 20:59:00,
2013-06-11 17:05:00,89.2,75.0,28.79,South,180,2.0,4.0,63,0.00,,---,0.38,VWS V14.00,2013-06-11 21:05:00,
2013-06-11 17:14:00,89.2,75.0,28.79,NE,45,1.1,6.3,63,0.00,,---,0.38,VWS V14.00,2013-06-11 21:14:00,
2013-06-11 17:20:00,89.1,74.8,28.79,South,180,0.0,6.3,63,0.00,,---,0.38,VWS V14.00,2013-06-11 21:20:00,
2013-06-11 17:26:00,88.7,74.5,28.79,West,270,2.9,6.3,63,0.00,,---,0.38,VWS V14.00,2013-06-11 21:26:00,
2013-06-11 17:33:00,88.7,74.5,28.79,SSE,158,1.6,6.3,63,0.00,,---,0.38,VWS V14.00,2013-06-11 21:33:00,
2013-06-11 17:39:00,88.3,74.2,28.79,NW,315,1.6,6.3,63,0.00,,---,0.38,VWS V14.00,2013-06-11 21:39:00,
2013-06-11 17:45:00,88.2,74.0,28.79,WSW,248,1.1,6.3,63,0.00,,---,0.38,VWS V14.00,2013-06-11 21:45:00,
2013-06-11 17:51:00,88.0,73.8,28.79,WSW,248,1.6,6.3,63,0.00,,---,0.38,VWS V14.00,2013-06-11 21:51:00,
2013-06-11 17:57:00,88.0,73.8,28.79,NW,315,0.0,6.3,63,0.00,,---,0.38,VWS V14.00,2013-06-11 21:57:00,
2013-06-11 18:03:00,88.0,73.8,28.79,WSW,248,0.0,2.0,63,0.00,,---,0.38,VWS V14.00,2013-06-11 22:03:00,
2013-06-11 18:09:00,87.8,73.6,28.79,NW,315,1.3,3.4,63,0.00,,---,0.38,VWS V14.00,2013-06-11 22:09:00,
2013-06-11 18:15:00,87.6,73.9,28.79,ESE,112,1.3,3.6,64,0.00,,---,0.38,VWS V14.00,2013-06-11 22:15:00,
2013-06-11 18:21:00,87.3,73.6,28.79,NW,315,0.0,3.6,64,0.00,,---,0.38,VWS V14.00,2013-06-11 22:21:00,
2013-06-11 18:27:00,87.3,73.6,28.79,SW,225,2.5,3.6,64,0.00,,---,0.38,VWS V14.00,2013-06-11 22:27:00,
2013-06-11 18:33:00,87.1,73.4,28.79,SW,225,2.0,4.3,64,0.00,,---,0.38,VWS V14.00,2013-06-11 22:33:00,
2013-06-11 18:39:00,86.9,73.3,28.79,West,270,0.0,4.3,64,0.00,,---,0.38,VWS V14.00,2013-06-11 22:39:00,
2013-06-11 18:45:00,86.9,73.3,28.79,NW,315,0.0,4.3,64,0.00,,---,0.38,VWS V14.00,2013-06-11 22:45:00,
2013-06-11 18:51:00,86.7,73.1,28.79,NW,315,2.2,4.3,64,0.00,,---,0.38,VWS V14.00,2013-06-11 22:51:00,
2013-06-11 18:57:00,86.5,72.9,28.79,WNW,292,0.9,4.3,64,0.00,,---,0.38,VWS V14.00,2013-06-11 22:57:00,
2013-06-11 19:03:00,86.2,72.6,28.79,West,270,0.0,2.5,64,0.00,,---,0.38,VWS V14.00,2013-06-11 23:03:00,
2013-06-11 19:09:00,85.8,72.2,28.79,West,270,0.0,2.5,64,0.00,,---,0.38,VWS V14.00,2013-06-11 23:09:00,
2013-06-11 19:15:00,85.8,72.2,28.79,West,270,0.0,2.5,64,0.00,,---,0.38,VWS V14.00,2013-06-11 23:15:00,
2013-06-11 19:21:00,85.5,72.4,28.79,ENE,68,0.0,2.5,65,0.00,,---,0.38,VWS V14.00,2013-06-11 23:21:00,
2013-06-11 19:27:00,85.3,72.2,28.79,WNW,292,0.0,2.5,65,0.00,,---,0.38,VWS V14.00,2013-06-11 23:27:00,
2013-06-11 19:33:00,84.9,71.8,28.79,West,270,0.0,2.5,65,0.00,,---,0.38,VWS V14.00,2013-06-11 23:33:00,
2013-06-11 19:39:00,84.6,72.0,28.79,West,270,0.0,2.5,66,0.00,,---,0.38,VWS V14.00,2013-06-11 23:39:00,
2013-06-11 19:45:00,84.2,71.6,28.79,West,270,0.0,2.5,66,0.00,,---,0.38,VWS V14.00,2013-06-11 23:45:00,
2013-06-11 19:54:00,83.7,71.6,28.79,West,270,0.0,2.5,67,0.00,,---,0.38,VWS V14.00,2013-06-11 23:54:00,
2013-06-11 20:00:00,83.3,71.6,28.79,West,270,0.0,0.0,68,0.00,,---,0.38,VWS V14.00,2013-06-12 00:00:00,
2013-06-11 20:06:00,82.8,71.6,28.79,NNW,338,0.0,0.0,69,0.00,,---,0.38,VWS V14.00,2013-06-12 00:06:00,
2013-06-11 20:12:00,82.4,71.6,28.79,NW,315,0.0,0.0,70,0.00,,---,0.38,VWS V14.00,2013-06-12 00:12:00,
2013-06-11 20:18:00,82.0,71.3,28.79,WNW,292,0.0,0.0,70,0.00,,---,0.38,VWS V14.00,2013-06-12 00:18:00,
2013-06-11 20:24:00,81.7,71.4,28.79,West,270,0.0,0.0,71,0.00,,---,0.38,VWS V14.00,2013-06-12 00:24:00,
2013-06-11 20:30:00,81.3,71.0,28.79,West,270,0.0,0.0,71,0.00,,---,0.38,VWS V14.00,2013-06-12 00:30:00,
2013-06-11 20:36:00,81.0,70.7,28.79,West,270,0.0,0.0,71,0.00,,---,0.38,VWS V14.00,2013-06-12 00:36:00,
2013-06-11 20:42:00,80.6,70.8,28.79,West,270,0.0,0.0,72,0.00,,---,0.38,VWS V14.00,2013-06-12 00:42:00,
2013-06-11 20:49:00,80.2,70.8,28.79,West,270,0.0,0.0,73,0.00,,---,0.38,VWS V14.00,2013-06-12 00:49:00,
2013-06-11 20:55:00,79.9,70.9,28.79,West,270,0.0,0.0,74,0.00,,---,0.38,VWS V14.00,2013-06-12 00:55:00,
2013-06-11 21:01:00,79.5,70.5,28.79,West,270,0.0,0.0,74,0.00,,---,0.38,VWS V14.00,2013-06-12 01:01:00,
2013-06-11 21:07:00,79.2,70.2,28.79,West,270,0.0,0.0,74,0.00,,---,0.38,VWS V14.00,2013-06-12 01:07:00,
2013-06-11 21:13:00,78.8,70.2,28.79,West,270,0.0,0.0,75,0.00,,---,0.38,VWS V14.00,2013-06-12 01:13:00,
2013-06-11 21:19:00,78.4,69.9,28.79,NW,315,0.0,0.0,75,0.00,,---,0.38,VWS V14.00,2013-06-12 01:19:00,
2013-06-11 21:25:00,78.1,69.9,28.79,NW,315,0.0,0.0,76,0.00,,---,0.38,VWS V14.00,2013-06-12 01:25:00,
2013-06-11 21:31:00,77.9,69.7,28.82,NW,315,0.0,0.0,76,0.00,,---,0.38,VWS V14.00,2013-06-12 01:31:00,
2013-06-11 21:37:00,77.4,69.2,28.82,West,270,0.0,0.0,76,0.00,,---,0.38,VWS V14.00,2013-06-12 01:37:00,
2013-06-11 21:43:00,77.4,69.2,28.82,West,270,0.0,0.0,76,0.00,,---,0.38,VWS V14.00,2013-06-12 01:43:00,
2013-06-11 21:49:00,77.0,68.9,28.82,West,270,0.0,0.0,76,0.00,,---,0.38,VWS V14.00,2013-06-12 01:49:00,
2013-06-11 21:55:00,76.6,68.9,28.82,West,270,0.0,0.0,77,0.00,,---,0.38,VWS V14.00,2013-06-12 01:55:00,
2013-06-11 22:01:00,76.5,68.7,28.82,West,270,0.0,0.0,77,0.00,,---,0.38,VWS V14.00,2013-06-12 02:01:00,
2013-06-11 22:07:00,76.3,68.6,28.82,West,270,0.0,0.0,77,0.00,,---,0.38,VWS V14.00,2013-06-12 02:07:00,
2013-06-11 22:13:00,75.9,68.2,28.85,WNW,292,0.0,0.0,77,0.00,,---,0.38,VWS V14.00,2013-06-12 02:13:00,
2013-06-11 22:19:00,75.7,68.0,28.85,West,270,0.0,0.0,77,0.00,,---,0.38,VWS V14.00,2013-06-12 02:19:00,
2013-06-11 22:25:00,75.6,67.8,28.85,West,270,0.0,0.0,77,0.00,,---,0.38,VWS V14.00,2013-06-12 02:25:00,
2013-06-11 22:31:00,75.6,67.8,28.85,West,270,0.0,0.0,77,0.00,,---,0.38,VWS V14.00,2013-06-12 02:31:00,
2013-06-11 22:37:00,75.4,67.7,28.85,WSW,248,1.1,1.6,77,0.00,,---,0.38,VWS V14.00,2013-06-12 02:37:00,
2013-06-11 22:43:00,75.2,67.5,28.85,WNW,292,0.0,1.6,77,0.00,,---,0.38,VWS V14.00,2013-06-12 02:43:00,
2013-06-11 22:49:00,75.0,67.3,28.85,West,270,0.0,1.6,77,0.00,,---,0.38,VWS V14.00,2013-06-12 02:49:00,
2013-06-11 22:55:00,74.8,67.2,28.85,SW,225,0.0,1.6,77,0.00,,---,0.38,VWS V14.00,2013-06-12 02:55:00,
2013-06-11 23:01:00,74.8,66.8,28.85,West,270,0.0,0.0,76,0.00,,---,0.38,VWS V14.00,2013-06-12 03:01:00,
2013-06-11 23:07:00,74.8,66.8,28.85,WNW,292,0.0,0.0,76,0.00,,---,0.38,VWS V14.00,2013-06-12 03:07:00,
2013-06-11 23:13:00,74.8,67.2,28.85,North,0,0.0,0.0,77,0.00,,---,0.38,VWS V14.00,2013-06-12 03:13:00,
2013-06-11 23:19:00,74.5,66.8,28.85,North,0,0.0,0.0,77,0.00,,---,0.38,VWS V14.00,2013-06-12 03:19:00,
2013-06-11 23:25:00,74.5,66.8,28.85,WNW,292,0.0,0.0,77,0.00,,---,0.38,VWS V14.00,2013-06-12 03:25:00,
2013-06-11 23:31:00,74.3,66.6,28.85,East,90,0.0,0.0,77,0.00,,---,0.38,VWS V14.00,2013-06-12 03:31:00,
2013-06-11 23:37:00,74.1,66.5,28.85,East,90,0.0,0.0,77,0.00,,---,0.38,VWS V14.00,2013-06-12 03:37:00,
2013-06-11 23:43:00,73.9,66.3,28.85,East,90,0.0,0.0,77,0.00,,---,0.38,VWS V14.00,2013-06-12 03:43:00,
2013-06-11 23:49:00,73.8,66.1,28.85,East,90,0.0,0.0,77,0.00,,---,0.38,VWS V14.00,2013-06-12 03:49:00,
2013-06-11 23:55:00,73.8,66.1,28.85,East,90,0.0,0.0,77,0.00,,---,0.38,VWS V14.00,2013-06-12 03:55:00,